sat.trackr.live / text

‹ back to catalog

STARLINK-32097

NORAD 60351 · 2024-136Y

PAYLOAD ACTIVE UNKNOWN

§ Identity

Operator
Country
US
Launch date
2024-08-02
Launch site
AFETR
Launch vehicle
Mass (kg)
RCS (m²)

Purposes: comms

External: N2YO · Heavens-Above · Gunter

§ Orbital elements

Epoch: 2026-09-21T15:28:24.271104Z

Period
93.85 min
Inclination
53.1596°
Eccentricity
0.0001369
Mean motion
15.34386035 rev/d
Perigee alt
461.8 km
Apogee alt
463.7 km
Semi-major
6,840.9 km
B*
-1.0420e-5
RAAN
240.6839°
Arg perigee
90.1520°
Mean anomaly
269.9639°
Rev number
11,973

§ Raw data

STARLINK-320971 60351U 24136Y   26264.64472536 -.00000728  00000+0 -10420-4 0  99972 60351  53.1596 240.6839 0001369  90.1520 269.9639 15.34386035119737

JSON: /api/v1/satellites/60351 · /tle

For live sub-satellite position, see the globe view (requires WebGL).

§ Visibility from observer

Set your observer location to see the next 7 days of passes ≥ 10°. The values pass through the URL so the page stays shareable.

No JS? Fill the form by hand. The geolocation button needs JavaScript.